01-09-2022, 00:00:08,     37,    0.0,   11.5,   0.00,   0.00, 1019.2,   81.8, -999.0
01-09-2022, 00:00:18,     37,    0.0,   11.4,   0.00,   0.00, 1019.2,   81.7, -999.0
01-09-2022, 00:00:28,     37,    0.0,   11.4,   0.00,   0.00, 1019.2,   81.6, -999.0
01-09-2022, 00:00:38,     37,    0.0,   11.4,   0.00,   0.00, 1019.2,   81.5, -999.0
01-09-2022, 00:00:48,     37,    0.0,   11.4,   0.00,   0.00, 1019.2,   81.5, -999.0
01-09-2022, 00:00:58,     38,    0.0,   11.4,   0.00,   0.00, 1019.2,   81.4, -999.0
01-09-2022, 00:01:08,     38,    0.0,   11.4,   0.00,   0.00, 1019.2,   81.5, -999.0
01-09-2022, 00:01:18,     37,    0.0,   11.4,   0.00,   0.00, 1019.2,   81.5, -999.0
01-09-2022, 00:01:28,     37,    0.0,   11.4,   0.00,   0.00, 1019.2,   81.6, -999.0
01-09-2022, 00:01:38,     37,    0.0,   11.4,   0.00,   0.00, 1019.1,   81.7, -999.0
01-09-2022, 00:01:48,     37,    0.0,   11.4,   0.00,   0.00, 1019.2,   81.8, -999.0
01-09-2022, 00:01:58,     37,    0.0,   11.4,   0.00,   0.00, 1019.2,   81.6, -999.0
01-09-2022, 00:02:08,     35,    0.0,   11.4,   0.00,   0.00, 1019.1,   81.5, -999.0
01-09-2022, 00:02:18,     37,    0.0,   11.3,   0.00,   0.00, 1019.2,   81.5, -999.0
01-09-2022, 00:02:27,     37,    0.0,   11.3,   0.00,   0.00, 1019.1,   81.4, -999.0
01-09-2022, 00:02:38,     37,    0.0,   11.3,   0.00,   0.00, 1019.2,   81.4, -999.0
01-09-2022, 00:02:47,     37,    0.0,   11.3,   0.00,   0.00, 1019.2,   81.6, -999.0
01-09-2022, 00:02:57,     37,    0.0,   11.3,   0.00,   0.00, 1019.1,   81.6, -999.0
01-09-2022, 00:03:07,     37,    0.0,   11.3,   0.00,   0.00, 1019.1,   81.6, -999.0
01-09-2022, 00:03:17,     37,    0.0,   11.3,   0.00,   0.00, 1019.1,   81.6, -999.0
01-09-2022, 00:03:27,     37,    0.0,   11.3,   0.00,   0.00, 1019.2,   81.6, -999.0
01-09-2022, 00:03:37,     37,    0.0,   11.3,   0.00,   0.00, 1019.1,   81.7, -999.0
01-09-2022, 00:03:47,     37,    0.0,   11.2,   0.00,   0.00, 1019.1,   81.6, -999.0
01-09-2022, 00:03:57,     37,    0.0,   11.2,   0.00,   0.00, 1019.1,   81.6, -999.0
01-09-2022, 00:04:07,     37,    0.0,   11.3,   0.00,   0.00, 1019.2,   81.7, -999.0
01-09-2022, 00:04:17,     37,    0.0,   11.3,   0.00,   0.00, 1019.1,   81.7, -999.0
01-09-2022, 00:04:27,     36,    0.0,   11.2,   0.00,   0.00, 1019.2,   81.8, -999.0
01-09-2022, 00:04:37,     37,    0.0,   11.2,   0.00,   0.00, 1019.2,   81.8, -999.0
01-09-2022, 00:04:47,     37,    0.0,   11.2,   0.00,   0.00, 1019.1,   81.9, -999.0
01-09-2022, 00:04:57,     37,    0.0,   11.2,   0.00,   0.00, 1019.2,   81.8, -999.0
01-09-2022, 00:05:07,     37,    0.0,   11.2,   0.00,   0.00, 1019.2,   81.9, -999.0
01-09-2022, 00:05:17,     37,    0.0,   11.3,   0.00,   0.00, 1019.2,   82.0, -999.0
01-09-2022, 00:05:26,     37,    0.0,   11.2,   0.00,   0.00, 1019.1,   81.9, -999.0
01-09-2022, 00:05:36,     37,    0.0,   11.1,   0.00,   0.00, 1019.1,   82.0, -999.0
01-09-2022, 00:05:47,     38,    0.0,   11.2,   0.00,   0.00, 1019.1,   82.0, -999.0
01-09-2022, 00:05:56,     37,    0.0,   11.2,   0.00,   0.00, 1019.2,   81.9, -999.0
01-09-2022, 00:06:06,     37,    0.0,   11.2,   0.00,   0.00, 1019.2,   82.2, -999.0
01-09-2022, 00:06:16,     37,    0.0,   11.2,   0.00,   0.00, 1019.2,   82.1, -999.0
01-09-2022, 00:06:26,     37,    0.0,   11.1,   0.00,   0.00, 1019.1,   82.0, -999.0
01-09-2022, 00:06:36,     37,    0.0,   11.2,   0.00,   0.00, 1019.1,   82.1, -999.0
01-09-2022, 00:06:46,     38,    0.0,   11.2,   0.00,   0.00, 1019.1,   82.1, -999.0
01-09-2022, 00:06:56,     38,    0.0,   11.2,   0.00,   0.00, 1019.1,   82.3, -999.0
01-09-2022, 00:07:06,     37,    0.0,   11.1,   0.00,   0.00, 1019.1,   82.3, -999.0
01-09-2022, 00:07:16,     37,    0.0,   11.2,   0.00,   0.00, 1019.1,   82.3, -999.0
01-09-2022, 00:07:26,     37,    0.0,   11.2,   0.00,   0.00, 1019.1,   82.3, -999.0
01-09-2022, 00:07:36,     37,    0.0,   11.2,   0.00,   0.00, 1019.1,   82.3, -999.0
01-09-2022, 00:07:46,     37,    0.0,   11.2,   0.00,   0.00, 1019.1,   82.4, -999.0
01-09-2022, 00:07:56,     38,    0.0,   11.2,   0.00,   0.00, 1019.1,   82.4, -999.0
01-09-2022, 00:08:05,     37,    0.0,   11.2,   0.00,   0.00, 1019.1,   82.3, -999.0
01-09-2022, 00:08:16,     37,    0.0,   11.3,   0.00,   0.00, 1019.1,   82.4, -999.0
01-09-2022, 00:08:26,     37,    0.0,   11.2,   0.00,   0.00, 1019.1,   82.5, -999.0
01-09-2022, 00:08:35,     36,    0.0,   11.3,   0.00,   0.00, 1019.1,   82.5, -999.0
01-09-2022, 00:08:45,     37,    0.0,   11.2,   0.00,   0.00, 1019.1,   82.4, -999.0
01-09-2022, 00:08:55,     38,    0.0,   11.3,   0.00,   0.00, 1019.1,   82.5, -999.0
01-09-2022, 00:09:05,     37,    0.0,   11.3,   0.00,   0.00, 1019.1,   82.5, -999.0
01-09-2022, 00:09:15,     37,    0.0,   11.3,   0.00,   0.00, 1019.1,   82.4, -999.0
01-09-2022, 00:09:25,     37,    0.0,   11.2,   0.00,   0.00, 1019.1,   82.4, -999.0
01-09-2022, 00:09:35,     37,    0.0,   11.2,   0.00,   0.00, 1019.1,   82.4, -999.0
01-09-2022, 00:09:45,     37,    0.0,   11.2,   0.00,   0.00, 1019.1,   82.3, -999.0
01-09-2022, 00:09:55,     37,    0.0,   11.2,   0.00,   0.00, 1019.1,   82.3, -999.0
01-09-2022, 00:10:05,     38,    0.0,   11.3,   0.00,   0.00, 1019.1,   82.3, -999.0
01-09-2022, 00:10:15,     37,    0.0,   11.3,   0.00,   0.00, 1019.1,   82.4, -999.0
01-09-2022, 00:10:25,     37,    0.0,   11.2,   0.00,   0.00, 1019.1,   82.5, -999.0
01-09-2022, 00:10:35,     37,    0.0,   11.1,   0.00,   0.00, 1019.1,   82.4, -999.0
01-09-2022, 00:10:45,     38,    0.3,   11.2,   0.00,   0.00, 1019.1,   82.5, -999.0
01-09-2022, 00:10:55,     38,    0.5,   11.2,   0.00,   0.00, 1019.1,   82.8, -999.0
01-09-2022, 00:11:05,     37,    0.0,   11.2,   0.00,   0.00, 1019.1,   82.6, -999.0
01-09-2022, 00:11:14,     37,    0.0,   11.2,   0.00,   0.00, 1019.1,   82.5, -999.0
01-09-2022, 00:11:25,     38,    0.3,   11.2,   0.00,   0.00, 1019.1,   82.8, -999.0
01-09-2022, 00:11:34,     37,    0.5,   11.3,   0.00,   0.00, 1019.2,   83.0, -999.0
01-09-2022, 00:11:44,     37,    0.0,   11.2,   0.00,   0.00, 1019.1,   82.6, -999.0
01-09-2022, 00:11:55,     38,    0.0,   11.2,   0.00,   0.00, 1019.1,   82.6, -999.0
01-09-2022, 00:12:04,     37,    0.0,   11.1,   0.00,   0.00, 1019.0,   82.6, -999.0
01-09-2022, 00:12:14,     37,    0.0,   11.1,   0.00,   0.00, 1019.1,   82.6, -999.0
01-09-2022, 00:12:24,     38,    0.0,   11.1,   0.00,   0.00, 1019.1,   82.6, -999.0
01-09-2022, 00:12:34,     38,    0.4,   11.2,   0.00,   0.00, 1019.2,   83.0, -999.0
01-09-2022, 00:12:44,     38,    0.3,   11.2,   0.00,   0.00, 1019.1,   83.1, -999.0
01-09-2022, 00:12:54,     37,    0.5,   11.2,   0.00,   0.00, 1019.1,   83.0, -999.0
01-09-2022, 00:13:04,     37,    0.0,   11.2,   0.00,   0.00, 1019.0,   82.8, -999.0
01-09-2022, 00:13:16,     37,    0.0,   11.2,   0.00,   0.00, 1019.0,   82.8, -999.0
01-09-2022, 00:13:24,     38,    0.0,   11.2,   0.00,   0.00, 1019.0,   82.8, -999.0
01-09-2022, 00:13:34,     37,    0.0,   11.1,   0.00,   0.00, 1019.0,   82.9, -999.0
01-09-2022, 00:13:44,     37,    0.0,   11.1,   0.00,   0.00, 1019.0,   82.8, -999.0
01-09-2022, 00:13:54,     37,    0.0,   11.2,   0.00,   0.00, 1019.0,   82.8, -999.0
01-09-2022, 00:14:04,     37,    0.0,   11.2,   0.00,   0.00, 1019.0,   82.9, -999.0
01-09-2022, 00:14:13,     37,    0.0,   11.1,   0.00,   0.00, 1019.0,   82.8, -999.0
01-09-2022, 00:14:24,     38,    0.0,   11.2,   0.00,   0.00, 1019.0,   82.8, -999.0
01-09-2022, 00:14:34,     37,    0.0,   11.2,   0.00,   0.00, 1019.0,   82.8, -999.0
01-09-2022, 00:14:43,     36,    0.0,   11.2,   0.00,   0.00, 1019.0,   82.9, -999.0
01-09-2022, 00:14:53,     37,    0.0,   11.2,   0.00,   0.00, 1019.0,   83.1, -999.0
01-09-2022, 00:15:04,     37,    0.0,   11.2,   0.00,   0.00, 1019.0,   82.9, -999.0
01-09-2022, 00:15:13,     37,    0.0,   11.2,   0.00,   0.00, 1019.1,   82.9, -999.0
01-09-2022, 00:15:23,     37,    0.0,   11.2,   0.00,   0.00, 1019.1,   83.0, -999.0
01-09-2022, 00:15:33,     37,    0.0,   11.2,   0.00,   0.00, 1019.0,   82.9, -999.0
01-09-2022, 00:15:43,     39,    0.0,   11.2,   0.00,   0.00, 1019.1,   82.9, -999.0
01-09-2022, 00:15:53,     38,    0.0,   11.2,   0.00,   0.00, 1019.0,   82.8, -999.0
01-09-2022, 00:16:03,     37,    0.0,   11.2,   0.00,   0.00, 1019.0,   82.8, -999.0
01-09-2022, 00:16:13,     37,    0.0,   11.1,   0.00,   0.00, 1019.0,   82.8, -999.0
01-09-2022, 00:16:23,     37,    0.0,   11.0,   0.00,   0.00, 1019.0,   82.8, -999.0
01-09-2022, 00:16:33,     38,    0.0,   11.2,   0.00,   0.00, 1019.0,   82.9, -999.0
01-09-2022, 00:16:43,     38,    1.0,   11.2,   0.00,   0.00, 1019.2,   83.2, -999.0
01-09-2022, 00:16:52,     37,    0.2,   11.2,   0.00,   0.00, 1019.1,   83.1, -999.0
01-09-2022, 00:17:03,     37,    0.0,   11.1,   0.00,   0.00, 1019.0,   82.9, -999.0
01-09-2022, 00:17:13,     37,    0.0,   11.0,   0.00,   0.00, 1019.0,   82.8, -999.0
01-09-2022, 00:17:22,     37,    0.0,   11.1,   0.00,   0.00, 1019.0,   82.9, -999.0
01-09-2022, 00:17:33,     37,    0.0,   11.0,   0.00,   0.00, 1019.0,   83.0, -999.0
01-09-2022, 00:17:43,     37,    0.0,   11.1,   0.00,   0.00, 1019.1,   83.0, -999.0
01-09-2022, 00:17:52,     37,    0.7,   11.1,   0.00,   0.00, 1019.2,   83.3, -999.0
01-09-2022, 00:18:02,     37,    0.1,   11.2,   0.00,   0.00, 1019.1,   83.2, -999.0
01-09-2022, 00:18:12,     37,    0.0,   11.1,   0.00,   0.00, 1019.0,   83.0, -999.0
01-09-2022, 00:18:22,     37,    0.0,   11.1,   0.00,   0.00, 1019.0,   83.1, -999.0
01-09-2022, 00:18:32,     37,    0.0,   11.0,   0.00,   0.00, 1019.0,   83.1, -999.0
01-09-2022, 00:18:42,     37,    0.0,   11.1,   0.00,   0.00, 1019.0,   83.2, -999.0
01-09-2022, 00:18:52,     37,    0.0,   11.1,   0.00,   0.00, 1019.0,   83.2, -999.0
01-09-2022, 00:19:02,     37,    0.0,   11.1,   0.00,   0.00, 1019.0,   83.2, -999.0
01-09-2022, 00:19:12,     37,    0.0,   11.1,   0.00,   0.00, 1019.0,   83.2, -999.0
01-09-2022, 00:19:22,     38,    0.1,   11.0,   0.00,   0.00, 1019.1,   83.3, -999.0
01-09-2022, 00:19:32,     37,    0.6,   11.1,   0.00,   0.00, 1019.1,   83.6, -999.0
01-09-2022, 00:19:42,     38,    0.0,   11.2,   0.00,   0.00, 1019.0,   83.3, -999.0
01-09-2022, 00:19:52,     38,    1.1,   11.2,   0.00,   0.00, 1019.2,   83.6, -999.0
01-09-2022, 00:20:02,     37,    0.1,   11.1,   0.00,   0.00, 1019.0,   83.3, -999.0
01-09-2022, 00:20:12,     37,    0.0,   11.0,   0.00,   0.00, 1019.0,   83.3, -999.0
01-09-2022, 00:20:22,     37,    0.0,   11.1,   0.00,   0.00, 1019.0,   83.3, -999.0
01-09-2022, 00:20:31,     37,    0.0,   11.1,   0.00,   0.00, 1019.0,   83.3, -999.0
01-09-2022, 00:20:42,     37,    0.0,   11.2,   0.00,   0.00, 1019.0,   83.4, -999.0
01-09-2022, 00:20:51,     37,    0.0,   11.1,   0.00,   0.00, 1019.0,   83.4, -999.0
01-09-2022, 00:21:01,     37,    0.0,   11.1,   0.00,   0.00, 1019.0,   83.4, -999.0
01-09-2022, 00:21:11,     37,    0.2,   11.1,   0.00,   0.00, 1019.1,   83.6, -999.0
01-09-2022, 00:21:21,     37,    0.0,   11.0,   0.00,   0.00, 1019.0,   83.3, -999.0
01-09-2022, 00:21:31,     37,    0.0,   11.0,   0.00,   0.00, 1019.0,   83.3, -999.0
01-09-2022, 00:21:41,     37,    0.0,   11.0,   0.00,   0.00, 1019.0,   83.4, -999.0
01-09-2022, 00:21:51,     37,    0.0,   11.1,   0.00,   0.00, 1019.0,   83.3, -999.0
01-09-2022, 00:22:01,     37,    0.0,   11.1,   0.00,   0.00, 1019.0,   83.4, -999.0
01-09-2022, 00:22:11,     38,    0.0,   11.1,   0.00,   0.00, 1019.0,   83.4, -999.0
01-09-2022, 00:22:21,     37,    0.3,   11.2,   0.00,   0.00, 1019.1,   83.6, -999.0
01-09-2022, 00:22:31,     37,    0.0,   11.0,   0.00,   0.00, 1019.0,   83.5, -999.0
01-09-2022, 00:22:41,     38,    0.1,   11.2,   0.00,   0.00, 1019.1,   83.7, -999.0
01-09-2022, 00:22:51,     38,    0.7,   11.1,   0.00,   0.00, 1019.1,   83.7, -999.0
01-09-2022, 00:23:01,     38,    0.2,   11.2,   0.00,   0.00, 1019.1,   83.7, -999.0
01-09-2022, 00:23:11,     37,    0.7,   11.2,   0.00,   0.00, 1019.2,   83.8, -999.0
01-09-2022, 00:23:21,     38,    0.1,   11.1,   0.00,   0.00, 1019.1,   83.6, -999.0
01-09-2022, 00:23:30,     37,    0.0,   11.1,   0.00,   0.00, 1019.0,   83.6, -999.0
01-09-2022, 00:23:40,     38,    0.0,   11.1,   0.00,   0.00, 1019.0,   83.7, -999.0
01-09-2022, 00:23:51,     38,    0.7,   11.2,   0.00,   0.00, 1019.2,   84.0, -999.0
01-09-2022, 00:24:00,     38,    0.8,   11.2,   0.00,   0.00, 1019.2,   84.0, -999.0
01-09-2022, 00:24:10,     38,    0.8,   11.2,   0.00,   0.00, 1019.2,   84.0, -999.0
01-09-2022, 00:24:20,     37,    0.0,   11.1,   0.00,   0.00, 1019.0,   83.7, -999.0
01-09-2022, 00:24:30,     37,    0.0,   11.1,   0.00,   0.00, 1019.0,   83.5, -999.0
01-09-2022, 00:24:40,     37,    0.0,   11.1,   0.00,   0.00, 1019.0,   83.7, -999.0
01-09-2022, 00:24:50,     38,    0.1,   11.1,   0.00,   0.00, 1019.1,   83.8, -999.0
01-09-2022, 00:25:00,     37,    0.1,   11.2,   0.00,   0.00, 1019.1,   83.8, -999.0
01-09-2022, 00:25:10,     37,    0.0,   11.1,   0.00,   0.00, 1019.0,   83.8, -999.0
01-09-2022, 00:25:20,     37,    0.0,   11.1,   0.00,   0.00, 1019.0,   83.7, -999.0
01-09-2022, 00:25:30,     37,    0.0,   11.1,   0.00,   0.00, 1019.0,   83.6, -999.0
01-09-2022, 00:25:40,     37,    0.0,   11.1,   0.00,   0.00, 1019.0,   83.8, -999.0
01-09-2022, 00:25:50,     37,    0.5,   11.2,   0.00,   0.00, 1019.2,   84.0, -999.0
01-09-2022, 00:26:00,     37,    0.8,   11.2,   0.00,   0.00, 1019.1,   84.1, -999.0
01-09-2022, 00:26:10,     37,    0.7,   11.2,   0.00,   0.00, 1019.1,   84.0, -999.0
01-09-2022, 00:26:20,     37,    0.0,   11.1,   0.00,   0.00, 1019.0,   83.7, -999.0
01-09-2022, 00:26:30,     37,    0.0,   11.1,   0.00,   0.00, 1019.0,   83.7, -999.0
01-09-2022, 00:26:39,     37,    0.0,   11.0,   0.00,   0.00, 1019.0,   83.7, -999.0
01-09-2022, 00:26:50,     37,    0.1,   11.1,   0.00,   0.00, 1019.0,   83.8, -999.0
01-09-2022, 00:26:59,     37,    0.0,   11.1,   0.00,   0.00, 1019.0,   83.7, -999.0
01-09-2022, 00:27:09,     38,    0.0,   11.1,   0.00,   0.00, 1019.0,   83.8, -999.0
01-09-2022, 00:27:19,     37,    0.0,   11.1,   0.00,   0.00, 1019.0,   83.8, -999.0
01-09-2022, 00:27:29,     37,    0.0,   11.2,   0.00,   0.00, 1019.0,   83.8, -999.0
01-09-2022, 00:27:39,     38,    0.1,   11.1,   0.00,   0.00, 1019.1,   84.0, -999.0
01-09-2022, 00:27:49,     37,    0.4,   11.1,   0.00,   0.00, 1019.1,   84.1, -999.0
01-09-2022, 00:27:59,     37,    0.2,   11.2,   0.00,   0.00, 1019.1,   84.1, -999.0
01-09-2022, 00:28:09,     37,    0.2,   11.1,   0.00,   0.00, 1019.1,   84.0, -999.0
01-09-2022, 00:28:19,     37,    0.2,   11.1,   0.00,   0.00, 1019.1,   84.1, -999.0
01-09-2022, 00:28:29,     37,    0.0,   11.1,   0.00,   0.00, 1019.0,   83.8, -999.0
01-09-2022, 00:28:39,     37,    0.0,   11.1,   0.00,   0.00, 1019.0,   83.8, -999.0
01-09-2022, 00:28:49,     37,    0.0,   11.1,   0.00,   0.00, 1019.0,   83.7, -999.0
01-09-2022, 00:28:59,     37,    0.0,   11.1,   0.00,   0.00, 1019.0,   83.7, -999.0
01-09-2022, 00:29:09,     37,    0.0,   11.1,   0.00,   0.00, 1019.0,   83.8, -999.0
01-09-2022, 00:29:19,     37,    0.0,   11.1,   0.00,   0.00, 1019.0,   83.8, -999.0
01-09-2022, 00:29:29,     37,    0.0,   11.1,   0.00,   0.00, 1019.0,   83.8, -999.0
01-09-2022, 00:29:38,     37,    0.0,   11.0,   0.00,   0.00, 1019.0,   83.8, -999.0
01-09-2022, 00:29:48,     37,    0.0,   11.1,   0.00,   0.00, 1019.0,   83.8, -999.0
01-09-2022, 00:29:59,     37,    0.0,   11.0,   0.00,   0.00, 1019.0,   83.8, -999.0
01-09-2022, 00:30:08,     37,    0.0,   11.0,   0.00,   0.00, 1019.0,   83.9, -999.0
01-09-2022, 00:30:18,     37,    0.0,   11.1,   0.00,   0.00, 1019.0,   83.8, -999.0
01-09-2022, 00:30:28,     37,    0.0,   11.1,   0.00,   0.00, 1019.0,   83.9, -999.0
01-09-2022, 00:30:38,     37,    0.0,   11.1,   0.00,   0.00, 1019.0,   83.9, -999.0
01-09-2022, 00:30:48,     37,    0.0,   11.1,   0.00,   0.00, 1019.0,   84.0, -999.0
01-09-2022, 00:30:58,     37,    0.0,   11.1,   0.00,   0.00, 1019.0,   84.0, -999.0
01-09-2022, 00:31:08,     38,    0.0,   11.0,   0.00,   0.00, 1019.0,   84.0, -999.0
01-09-2022, 00:31:18,     37,    0.0,   11.0,   0.00,   0.00, 1019.0,   83.9, -999.0
01-09-2022, 00:31:28,     38,    0.2,   11.1,   0.00,   0.00, 1019.0,   84.0, -999.0
01-09-2022, 00:31:38,     37,    0.4,   11.1,   0.00,   0.00, 1019.1,   84.1, -999.0
01-09-2022, 00:31:48,     37,    0.0,   11.1,   0.00,   0.00, 1018.9,   83.9, -999.0
01-09-2022, 00:31:58,     37,    0.0,   11.0,   0.00,   0.00, 1019.0,   84.0, -999.0
01-09-2022, 00:32:08,     37,    0.0,   11.0,   0.00,   0.00, 1019.0,   83.9, -999.0
01-09-2022, 00:32:17,     37,    0.0,   11.0,   0.00,   0.00, 1018.9,   83.8, -999.0
01-09-2022, 00:32:28,     37,    0.0,   11.0,   0.00,   0.00, 1018.9,   83.9, -999.0
01-09-2022, 00:32:38,     37,    0.0,   11.0,   0.00,   0.00, 1018.9,   83.8, -999.0
01-09-2022, 00:32:47,     37,    0.0,   11.0,   0.00,   0.00, 1019.0,   83.9, -999.0
01-09-2022, 00:32:57,     38,    0.1,   11.0,   0.00,   0.00, 1019.0,   84.0, -999.0
01-09-2022, 00:33:07,     37,    0.1,   11.1,   0.00,   0.00, 1019.0,   84.0, -999.0
01-09-2022, 00:33:17,     37,    0.6,   11.1,   0.00,   0.00, 1019.1,   84.2, -999.0
01-09-2022, 00:33:27,     38,    0.0,   11.0,   0.00,   0.00, 1018.9,   84.0, -999.0
01-09-2022, 00:33:37,     37,    0.0,   11.0,   0.00,   0.00, 1018.9,   84.1, -999.0
01-09-2022, 00:33:47,     37,    0.0,   11.0,   0.00,   0.00, 1018.9,   84.0, -999.0
01-09-2022, 00:33:57,     37,    0.0,   11.0,   0.00,   0.00, 1019.0,   84.0, -999.0
01-09-2022, 00:34:07,     37,    0.0,   11.0,   0.00,   0.00, 1018.9,   84.0, -999.0
01-09-2022, 00:34:17,     37,    0.0,   11.0,   0.00,   0.00, 1018.9,   84.1, -999.0
01-09-2022, 00:34:27,     37,    0.0,   11.0,   0.00,   0.00, 1019.0,   84.0, -999.0
01-09-2022, 00:34:37,     37,    0.0,   11.0,   0.00,   0.00, 1019.0,   84.1, -999.0
01-09-2022, 00:34:47,     37,    0.4,   11.0,   0.00,   0.00, 1019.1,   84.5, -999.0
01-09-2022, 00:34:57,     37,    0.4,   11.1,   0.00,   0.00, 1019.1,   84.4, -999.0
01-09-2022, 00:35:07,     37,    0.0,   11.0,   0.00,   0.00, 1018.9,   84.2, -999.0
01-09-2022, 00:35:17,     37,    0.0,   11.0,   0.00,   0.00, 1019.0,   84.3, -999.0
01-09-2022, 00:35:27,     37,    0.0,   11.0,   0.00,   0.00, 1019.0,   84.3, -999.0
01-09-2022, 00:35:37,     37,    0.4,   11.0,   0.00,   0.00, 1019.1,   84.5, -999.0
01-09-2022, 00:35:46,     37,    0.5,   11.1,   0.00,   0.00, 1019.1,   84.6, -999.0
01-09-2022, 00:35:56,     37,    0.1,   11.0,   0.00,   0.00, 1019.0,   84.4, -999.0
01-09-2022, 00:36:07,     37,    0.4,   11.1,   0.00,   0.00, 1019.1,   84.6, -999.0
01-09-2022, 00:36:16,     37,    0.0,   11.0,   0.00,   0.00, 1019.0,   84.3, -999.0
01-09-2022, 00:36:26,     37,    0.0,   11.0,   0.00,   0.00, 1018.9,   84.3, -999.0
01-09-2022, 00:36:36,     37,    0.0,   11.0,   0.00,   0.00, 1018.9,   84.3, -999.0
01-09-2022, 00:36:46,     37,    0.0,   11.0,   0.00,   0.00, 1018.9,   84.3, -999.0
01-09-2022, 00:36:56,     37,    0.0,   11.0,   0.00,   0.00, 1018.9,   84.3, -999.0
01-09-2022, 00:37:06,     36,    0.0,   11.0,   0.00,   0.00, 1018.9,   84.4, -999.0
01-09-2022, 00:37:16,     37,    0.0,   11.0,   0.00,   0.00, 1018.9,   84.3, -999.0
01-09-2022, 00:37:26,     38,    0.0,   11.0,   0.00,   0.00, 1018.9,   84.3, -999.0
01-09-2022, 00:37:36,     37,    0.0,   10.9,   0.00,   0.00, 1018.9,   84.3, -999.0
01-09-2022, 00:37:46,     37,    0.0,   10.9,   0.00,   0.00, 1018.9,   84.4, -999.0
01-09-2022, 00:37:56,     38,    0.3,   11.0,   0.00,   0.00, 1019.0,   84.5, -999.0
01-09-2022, 00:38:06,     38,    0.9,   11.1,   0.00,   0.00, 1019.1,   84.8, -999.0
01-09-2022, 00:38:16,     37,    1.5,   11.0,   0.00,   0.00, 1019.1,   84.8, -999.0
01-09-2022, 00:38:25,     37,    0.9,   11.0,   0.00,   0.00, 1019.1,   84.8, -999.0
01-09-2022, 00:38:36,     37,    0.7,   11.1,   0.00,   0.00, 1019.1,   84.9, -999.0
01-09-2022, 00:38:46,     37,    0.3,   11.1,   0.00,   0.00, 1019.1,   84.8, -999.0
01-09-2022, 00:38:55,     36,    0.1,   11.1,   0.00,   0.00, 1019.0,   84.7, -999.0
01-09-2022, 00:39:05,     37,    0.0,   11.0,   0.00,   0.00, 1018.9,   84.6, -999.0
01-09-2022, 00:39:16,     37,    0.0,   11.1,   0.00,   0.00, 1018.9,   84.7, -999.0
01-09-2022, 00:39:25,     37,    0.3,   11.0,   0.00,   0.00, 1019.0,   84.9, -999.0
01-09-2022, 00:39:35,     37,    0.2,   11.1,   0.00,   0.00, 1019.0,   84.8, -999.0
01-09-2022, 00:39:45,     37,    0.0,   11.1,   0.00,   0.00, 1018.9,   84.6, -999.0
01-09-2022, 00:39:55,     37,    0.0,   11.1,   0.00,   0.00, 1018.9,   84.6, -999.0
01-09-2022, 00:40:05,     37,    0.0,   11.1,   0.00,   0.00, 1018.9,   84.6, -999.0
01-09-2022, 00:40:15,     36,    0.0,   11.1,   0.00,   0.00, 1018.8,   84.6, -999.0
01-09-2022, 00:40:25,     37,    0.0,   11.1,   0.00,   0.00, 1018.9,   84.5, -999.0
01-09-2022, 00:40:35,     37,    0.0,   11.1,   0.00,   0.00, 1018.8,   84.5, -999.0
01-09-2022, 00:40:45,     37,    0.0,   11.0,   0.00,   0.00, 1018.9,   84.4, -999.0
01-09-2022, 00:40:55,     37,    0.2,   11.0,   0.00,   0.00, 1018.9,   84.5, -999.0
01-09-2022, 00:41:05,     37,    0.3,   11.2,   0.00,   0.00, 1018.9,   84.7, -999.0
01-09-2022, 00:41:15,     37,    0.0,   11.1,   0.00,   0.00, 1018.9,   84.5, -999.0
01-09-2022, 00:41:25,      0,    1.1,   11.0,   0.00,   0.00, 1019.0,   84.6, -999.0
01-09-2022, 00:41:34,    358,    1.3,   11.1,   0.00,   0.00, 1019.0,   84.8, -999.0
01-09-2022, 00:41:45,    358,    0.0,   11.0,   0.00,   0.00, 1018.9,   84.5, -999.0
01-09-2022, 00:41:55,    358,    0.0,   11.0,   0.00,   0.00, 1018.9,   84.5, -999.0
01-09-2022, 00:42:04,      0,    0.0,   11.0,   0.00,   0.00, 1018.9,   84.5, -999.0
01-09-2022, 00:42:14,      0,    0.7,   11.1,   0.00,   0.00, 1019.0,   84.7, -999.0
01-09-2022, 00:42:24,      0,    0.1,   11.0,   0.00,   0.00, 1018.9,   84.5, -999.0
01-09-2022, 00:42:34,      0,    0.0,   11.0,   0.00,   0.00, 1018.9,   84.5, -999.0
01-09-2022, 00:42:44,      0,    0.2,   11.0,   0.00,   0.00, 1019.0,   84.6, -999.0
01-09-2022, 00:42:54,      0,    0.3,   11.1,   0.00,   0.00, 1019.0,   84.7, -999.0
01-09-2022, 00:43:04,      0,    0.2,   11.0,   0.00,   0.00, 1019.0,   84.6, -999.0
01-09-2022, 00:43:14,      0,    0.0,   11.0,   0.00,   0.00, 1018.9,   84.5, -999.0
01-09-2022, 00:43:24,      0,    0.0,   11.0,   0.00,   0.00, 1018.9,   84.7, -999.0
01-09-2022, 00:43:34,      0,    0.0,   10.9,   0.00,   0.00, 1018.9,   84.6, -999.0
01-09-2022, 00:43:44,      0,    0.0,   10.9,   0.00,   0.00, 1018.9,   84.7, -999.0
01-09-2022, 00:43:54,      0,    0.0,   11.0,   0.00,   0.00, 1018.9,   84.7, -999.0
01-09-2022, 00:44:04,      0,    0.0,   11.0,   0.00,   0.00, 1018.9,   84.8, -999.0
01-09-2022, 00:44:14,      0,    0.0,   11.0,   0.00,   0.00, 1018.8,   84.6, -999.0
01-09-2022, 00:44:24,      0,    0.0,   10.9,   0.00,   0.00, 1018.9,   84.6, -999.0
01-09-2022, 00:44:34,      0,    0.0,   10.9,   0.00,   0.00, 1018.8,   84.6, -999.0
01-09-2022, 00:44:43,      0,    0.0,   10.9,   0.00,   0.00, 1018.8,   84.6, -999.0
01-09-2022, 00:44:54,      0,    0.0,   11.0,   0.00,   0.00, 1018.8,   84.7, -999.0
01-09-2022, 00:45:03,      0,    0.0,   10.9,   0.00,   0.00, 1018.8,   84.6, -999.0
01-09-2022, 00:45:13,      0,    0.0,   11.0,   0.00,   0.00, 1018.8,   84.6, -999.0
01-09-2022, 00:45:23,      0,    0.0,   10.9,   0.00,   0.00, 1018.8,   84.7, -999.0
01-09-2022, 00:45:33,      0,    0.0,   10.9,   0.00,   0.00, 1018.8,   84.6, -999.0
01-09-2022, 00:45:43,      0,    0.0,   10.9,   0.00,   0.00, 1018.8,   84.6, -999.0
01-09-2022, 00:45:53,      0,    0.0,   10.9,   0.00,   0.00, 1018.8,   84.6, -999.0
01-09-2022, 00:46:03,      0,    0.0,   10.9,   0.00,   0.00, 1018.8,   84.6, -999.0
01-09-2022, 00:46:13,      0,    0.0,   10.9,   0.00,   0.00, 1018.9,   84.7, -999.0
01-09-2022, 00:46:23,      0,    0.0,   10.9,   0.00,   0.00, 1018.8,   84.7, -999.0
01-09-2022, 00:46:33,      0,    0.0,   10.9,   0.00,   0.00, 1018.8,   84.7, -999.0
01-09-2022, 00:46:43,      0,    0.0,   10.9,   0.00,   0.00, 1018.9,   84.9, -999.0